Weather History for Flora, IL

Change the Weather History Date:

Wednesday, November 21, 2012

  Actual Average (KEVV) Record (KEVV)
Temperature  
Mean Temperature 50 °F 44 °F  
Max Temperature 63 °F 54 °F 74 °F (1990)
Min Temperature 38 °F 35 °F 13 °F (1964)
Degree Days  
Heating Degree Days 14 21  
Month to date heating degree days 351  
Since 1 July heating degree days 654  
Cooling Degree Days 0 0  
Month to date cooling degree days 0  
Year to date cooling degree days 1395  
Moisture  
Dew Point 45 °F    
Average Humidity 87    
Maximum Humidity 100    
Minimum Humidity 59    
Precipitation  
Precipitation 0.00 in 0.16 in 1.32 in (1942)
Month to date precipitation 2.98  
Year to date precipitation 40.20  
Snow  
Snow 0.00 in 0.00 in 0.30 in (1972)
Month to date snowfall 0.0  
Since 1 July snowfall 0.2  
Since 1 September snowfall 0.2  
Snow Depth -    
Sea Level Pressure  
Sea Level Pressure 30.22 in    
Wind  
Wind Speed 1 mph (NNW)    
Max Wind Speed 6 mph    
Max Gust Speed -    
Visibility 4 miles    
Events Fog , Rain    
T = Trace of Precipitation, MM = Missing Value Source: NWS Daily Summary

Daily Weather History Graph

Daily Weather History Graph

Search for Another Location

Airport:

Trip Planner

Search our weather history database for the weather conditions in past years. The results will help you decide how hot, cold, wet, or windy it might be!

Date:

Astronomy

Nov. 21, 2012 Rise Set
Actual Time 6:43 AM CST 4:36 PM CST
Civil Twilight 6:14 AM CST 5:05 PM CST
Nautical Twilight 5:41 AM CST 5:37 PM CST
Astronomical Twilight 5:10 AM CST 6:09 PM CST
Moon 12:49 PM CST 12:05 AM CST
Length of Visible Light 10h 50m
Length of Day
9h 53m
First Quarter, 62% of the Moon is Illuminated
Nov 21
First Quarter
Nov 28
Full
Dec 6
Last Quarter
Dec 13
New
Dec 19
First Quarter

Hourly Weather History & Observations

Time (CST) Temp. Windchill Dew Point Humidity Pressure Visibility Wind Dir Wind Speed Gust Speed Precip Events Conditions
12:15 AM 51.4 °F - 46.9 °F 85% 30.18 in 7.0 mi North 3.5 mph - N/A   Clear
12:35 AM 50.9 °F - 47.3 °F 87% 30.18 in 7.0 mi NNW 3.5 mph - N/A   Clear
12:55 AM 49.6 °F - 46.4 °F 89% 30.18 in 7.0 mi Calm Calm - N/A   Scattered Clouds
1:15 AM 46.2 °F - 45.0 °F 95% 30.18 in 4.0 mi Calm Calm - N/A   Scattered Clouds
1:35 AM 45.0 °F - 44.2 °F 97% 30.19 in 3.0 mi Calm Calm - N/A   Clear
1:55 AM 46.6 °F - 45.9 °F 97% 30.19 in 4.0 mi NW 3.5 mph - N/A   Clear
2:15 AM 47.1 °F - 46.0 °F 96% 30.20 in 4.0 mi NW 3.5 mph - N/A   Clear
2:35 AM 46.4 °F - 45.5 °F 97% 30.20 in 4.0 mi Calm Calm - N/A   Clear
2:55 AM 46.6 °F - 45.9 °F 97% 30.20 in 3.0 mi Calm Calm - N/A   Clear
3:15 AM 44.8 °F - 44.1 °F 97% 30.20 in 2.5 mi Calm Calm - N/A   Clear
3:35 AM 43.7 °F - 43.3 °F 99% 30.21 in 1.5 mi Calm Calm - N/A   Mist
3:55 AM 43.7 °F 42.1 °F 43.5 °F 99% 30.22 in 1.8 mi NNW 3.5 mph - N/A   Mist
4:15 AM 44.4 °F 42.9 °F 44.2 °F 99% 30.22 in 2.0 mi NNW 3.5 mph - N/A   Clear
4:35 AM 46.8 °F - 46.4 °F 99% 30.22 in 3.0 mi NW 5.8 mph - N/A   Clear
4:55 AM 46.6 °F - 46.2 °F 99% 30.23 in 2.5 mi NW 4.6 mph - N/A   Clear
5:15 AM 45.5 °F 43.2 °F 44.8 °F 97% 30.23 in 2.5 mi NNW 4.6 mph - N/A   Clear
5:35 AM 43.9 °F - 43.3 °F 98% 30.23 in 1.2 mi Calm Calm - N/A   Mist
5:55 AM 43.7 °F - 43.3 °F 99% 30.23 in 1.2 mi Calm Calm - N/A   Mist
6:15 AM 40.3 °F - 40.1 °F 99% 30.24 in - Calm Calm - N/A   Mostly Cloudy
6:35 AM 40.5 °F - 40.5 °F 100% 30.24 in 0.2 mi Calm Calm - N/A Fog Fog
6:55 AM 39.4 °F - 39.4 °F 100% 30.25 in 0.2 mi Calm Calm - N/A Fog Fog
7:15 AM 38.8 °F - 38.8 °F 100% 30.25 in 0.2 mi Calm Calm - N/A Rain Light Rain
7:35 AM 39.2 °F - 39.2 °F 100% 30.25 in 0.2 mi Calm Calm - N/A Fog Fog
7:55 AM 41.2 °F - 41.2 °F 100% 30.26 in 0.2 mi Calm Calm - N/A Fog Fog
8:15 AM 45.9 °F - 45.7 °F 99% 30.26 in 0.8 mi Calm Calm - N/A   Mostly Cloudy
8:35 AM 48.7 °F - 48.4 °F 99% 30.27 in 1.5 mi NNW 3.5 mph - N/A   Mist
8:55 AM 49.8 °F - 49.5 °F 99% 30.28 in 2.0 mi North 3.5 mph - N/A   Clear
9:15 AM 51.1 °F - 50.5 °F 98% 30.28 in 3.0 mi North 3.5 mph - N/A   Clear
9:35 AM 52.0 °F - 50.5 °F 95% 30.29 in 4.0 mi Calm Calm - N/A   Clear
9:55 AM 54.0 °F - 51.3 °F 91% 30.29 in 5.0 mi Calm Calm - N/A   Clear
10:15 AM 56.3 °F - 49.6 °F 78% 30.28 in 5.0 mi Calm Calm - N/A   Haze
10:35 AM 57.4 °F - 48.7 °F 73% 30.28 in 5.0 mi Calm Calm - N/A   Haze
10:55 AM 58.6 °F - 48.6 °F 69% 30.28 in 7.0 mi Calm Calm - N/A   Clear
11:15 AM 59.7 °F - 48.4 °F 66% 30.27 in 7.0 mi Calm Calm - N/A   Clear
11:35 AM 60.6 °F - 48.0 °F 63% 30.26 in 7.0 mi Calm Calm - N/A   Clear
11:55 AM 60.8 °F - 48.0 °F 63% 30.26 in 7.0 mi Calm Calm - N/A   Clear
12:15 PM 61.2 °F - 48.4 °F 63% 30.25 in 7.0 mi Calm Calm - N/A   Clear
12:35 PM 61.9 °F - 48.6 °F 62% 30.24 in 7.0 mi North 3.5 mph - N/A   Clear
12:55 PM 62.1 °F - 48.4 °F 61% 30.24 in 7.0 mi Calm Calm - N/A   Clear
1:15 PM 62.1 °F - 48.2 °F 60% 30.23 in 7.0 mi Calm Calm - N/A   Clear
1:35 PM 62.6 °F - 48.2 °F 59% 30.23 in 10.0 mi Calm Calm - N/A   Clear
1:55 PM 63.5 °F - 48.9 °F 59% 30.22 in 7.0 mi Calm Calm - N/A   Clear
2:15 PM 63.3 °F - 48.9 °F 59% 30.22 in 10.0 mi Calm Calm - N/A   Clear
2:35 PM 63.3 °F - 48.6 °F 59% 30.22 in 7.0 mi Calm Calm - N/A   Clear
2:55 PM 63.3 °F - 48.7 °F 59% 30.22 in 10.0 mi Calm Calm - N/A   Clear
3:15 PM 62.8 °F - 48.2 °F 59% 30.22 in 10.0 mi Calm Calm - N/A   Clear
3:35 PM 62.2 °F - 48.2 °F 60% 30.21 in 10.0 mi Calm Calm - N/A   Clear
3:55 PM 61.2 °F - 48.4 °F 63% 30.21 in 10.0 mi Calm Calm - N/A   Clear
4:15 PM 58.5 °F - 48.2 °F 69% 30.21 in 10.0 mi Calm Calm - N/A   Clear
4:35 PM 56.5 °F - 48.0 °F 73% 30.21 in 7.0 mi Calm Calm - N/A   Clear
5:15 PM 53.6 °F - 48.2 °F 82% 30.21 in 7.0 mi Calm Calm - N/A   Clear
5:33 PM 48.2 °F - 46.4 °F 93% 30.21 in 7.0 mi Calm Calm - N/A   Clear
5:55 PM 47.7 °F - 45.7 °F 93% 30.21 in 7.0 mi Calm Calm - N/A   Clear
6:15 PM 49.3 °F - 47.1 °F 92% 30.21 in 5.0 mi SSE 3.5 mph - N/A   Clear
6:35 PM 48.0 °F - 46.4 °F 94% 30.20 in 5.0 mi South 3.5 mph - N/A   Clear
6:55 PM 46.8 °F - 45.7 °F 96% 30.20 in 5.0 mi Calm Calm - N/A   Clear
7:15 PM 46.4 °F - 45.5 °F 97% 30.20 in 3.0 mi Calm Calm - N/A   Clear
7:35 PM 45.3 °F - 44.6 °F 97% 30.20 in 4.0 mi Calm Calm - N/A   Clear
7:55 PM 46.2 °F - 45.1 °F 96% 30.20 in 5.0 mi Calm Calm - N/A   Clear
8:15 PM 45.0 °F - 43.9 °F 96% 30.20 in 4.0 mi Calm Calm - N/A   Clear
8:35 PM 46.6 °F - 45.5 °F 96% 30.20 in 4.0 mi Calm Calm - N/A   Clear
8:55 PM 43.9 °F - 42.6 °F 95% 30.20 in 2.5 mi Calm Calm - N/A   Clear
9:15 PM 43.9 °F - 43.3 °F 98% 30.20 in 1.8 mi Calm Calm - N/A   Mist
9:35 PM 41.9 °F - 41.2 °F 97% 30.21 in 0.2 mi Calm Calm - N/A Fog Fog
9:55 PM 44.2 °F - 44.1 °F 99% 30.20 in - Calm Calm - N/A   Unknown
10:15 PM 41.2 °F - 41.2 °F 100% 30.20 in 0.2 mi Calm Calm - N/A Fog Fog
10:35 PM 40.6 °F - 40.5 °F 99% 30.20 in 0.2 mi Calm Calm - N/A Fog Fog
10:55 PM 38.8 °F - 38.8 °F 100% 30.20 in 0.2 mi Calm Calm - N/A Fog Fog
11:15 PM 38.8 °F - 38.8 °F 100% 30.20 in 0.2 mi Calm Calm - N/A Fog Fog
11:35 PM 38.8 °F - 38.8 °F 100% 30.20 in 0.5 mi Calm Calm - N/A   Light Drizzle
11:55 PM 39.6 °F - 39.6 °F 100% 30.19 in 0.2 mi Calm Calm - N/A Rain Light Rain